Weather History for Brindisi, Italy

Change the Weather History Date:

Wednesday, February 5, 2014

  Actual Average Record
Temperature  
Mean Temperature 54 °F -  
Max Temperature 61 °F 56 °F 62 °F (2001)
Min Temperature 47 °F 44 °F 37 °F (1997)
Degree Days  
Heating Degree Days 11    
Growing Degree Days 4 (Base 50)    
Moisture  
Dew Point 50 °F    
Average Humidity 92    
Maximum Humidity 100    
Minimum Humidity 74    
Precipitation  
Precipitation 0.00 in 0.08 in - ()
Sea Level Pressure  
Sea Level Pressure 30.04 in    
Wind  
Wind Speed 9 mph ()    
Max Wind Speed 15 mph    
Max Gust Speed -    
Visibility 6.2 miles    
Events      
Averages and records for this station are not official NWS values.
T = Trace of Precipitation, MM = Missing Value Source: Averaged Metar Reports

Daily Weather History Graph

Daily Weather History Graph

Search for Another Location

Airport:

Trip Planner

Search our weather history database for the weather conditions in past years. The results will help you decide how hot, cold, wet, or windy it might be!

Date:

Astronomy

Feb. 05, 2014 Rise Set
Actual Time 6:54 AM CET 5:10 PM CET
Civil Twilight 6:25 AM CET 5:39 PM CET
Nautical Twilight 5:53 AM CET 6:11 PM CET
Astronomical Twilight 5:21 AM CET 6:43 PM CET
Moon 9:55 AM CET (2/5) 11:50 PM CET (2/5)
Length of Visible Light 11h 13m
Length of Day
10h 16m
Waxing Crescent, 36% of the Moon is Illuminated
Feb 5
Waxing Crescent
Feb 6
First Quarter
Feb 15
Full
Feb 22
Last Quarter
Mar 1
New

Hourly Weather History & Observations

Time (CET) Temp. Windchill Dew Point Humidity Pressure Visibility Wind Dir Wind Speed Gust Speed Precip Events Conditions
12:15 AM 46.4 °F 42.4 °F 46.4 °F 100% 30.06 in 6.2 mi SSE 8.1 mph - N/A   Partly Cloudy
12:45 AM 46.4 °F 41.9 °F 46.4 °F 100% 30.06 in 6.2 mi SSE 9.2 mph - N/A   Partly Cloudy
1:00 AM 47 °F - 46 °F 92% 30.09 in 6 mi SSE 9.2 mph - -   Scattered Clouds
1:15 AM 46.4 °F 41.5 °F 46.4 °F 100% 30.06 in 6.2 mi SSW 10.4 mph - N/A   Scattered Clouds
1:45 AM 48.2 °F - 46.4 °F 93% 30.06 in 6.2 mi SSW 11.5 mph - N/A   Partly Cloudy
2:15 AM 48.2 °F - 46.4 °F 93% 30.06 in 6.2 mi SSE 9.2 mph - N/A   Partly Cloudy
2:45 AM 48.2 °F - 46.4 °F 93% 30.06 in 6.2 mi SSE 8.1 mph - N/A   Partly Cloudy
3:15 AM 48.2 °F - 46.4 °F 93% 30.06 in 6.2 mi South 6.9 mph - N/A   Partly Cloudy
3:45 AM 48.2 °F - 46.4 °F 93% 30.06 in 6.2 mi South 9.2 mph - N/A   Scattered Clouds
4:00 AM 48 °F - 47 °F 93% 30.07 in 6 mi South 9.2 mph - -   Partly Cloudy
4:15 AM 48.2 °F - 46.4 °F 93% 30.06 in 6.2 mi South 9.2 mph - N/A   Scattered Clouds
4:45 AM 48.2 °F - 46.4 °F 93% 30.06 in 6.2 mi South 8.1 mph - N/A   Scattered Clouds
5:15 AM 48.2 °F - 46.4 °F 93% 30.06 in 6.2 mi South 8.1 mph - N/A   Partly Cloudy
5:45 AM 48.2 °F - 46.4 °F 93% 30.06 in 6.2 mi South 8.1 mph - N/A   Partly Cloudy
6:15 AM 48.2 °F - 46.4 °F 93% 30.06 in 6.2 mi South 8.1 mph - N/A   Partly Cloudy
6:45 AM 48.2 °F - 46.4 °F 93% 30.04 in 6.2 mi SSW 5.8 mph - N/A   Partly Cloudy
7:00 AM 48 °F - 46 °F 90% 30.06 in 6 mi SSW 5.8 mph - -   Scattered Clouds
7:15 AM 48.2 °F - 46.4 °F 93% 30.04 in 6.2 mi South 9.2 mph - N/A   Partly Cloudy
7:45 AM 48.2 °F - 46.4 °F 93% 30.06 in 6.2 mi South 9.2 mph - N/A   Partly Cloudy
8:15 AM 48.2 °F - 46.4 °F 93% 30.06 in 6.2 mi SSE 10.4 mph - N/A   Partly Cloudy
8:45 AM 48.2 °F - 46.4 °F 93% 30.06 in 6.2 mi SSE 11.5 mph - N/A   Partly Cloudy
9:15 AM 51.8 °F - 50.0 °F 94% 30.06 in 6.2 mi SSE 9.2 mph - N/A   Partly Cloudy
9:45 AM 53.6 °F - 50.0 °F 88% 30.06 in 6.2 mi South 9.2 mph - N/A   Partly Cloudy
10:00 AM 53 °F - 51 °F 89% 30.07 in 6 mi South 9.2 mph - -   Scattered Clouds
10:15 AM 57.2 °F - 55.4 °F 94% 30.06 in 6.2 mi South 10.4 mph - N/A   Partly Cloudy
10:45 AM 59.0 °F - 55.4 °F 88% 30.06 in 6.2 mi South 11.5 mph - N/A   Partly Cloudy
11:15 AM 59.0 °F - 55.4 °F 88% 30.06 in 6.2 mi South 9.2 mph - N/A   Scattered Clouds
11:45 AM 59.0 °F - 55.4 °F 88% 30.06 in 6.2 mi South 8.1 mph - N/A   Scattered Clouds
12:15 PM 59.0 °F - 53.6 °F 82% 30.04 in 6.2 mi South 9.2 mph - N/A   Scattered Clouds
12:45 PM 59.0 °F - 55.4 °F 88% 30.04 in 6.2 mi South 11.5 mph - N/A   Scattered Clouds
1:00 PM 60 °F - 55 °F 78% 30.05 in 6 mi South 11.5 mph - -   Partly Cloudy
1:15 PM 59.0 °F - 55.4 °F 88% 30.04 in 6.2 mi South 10.4 mph - N/A   Scattered Clouds
1:45 PM 59.0 °F - 55.4 °F 88% 30.04 in 6.2 mi SE 9.2 mph - N/A   Scattered Clouds
2:15 PM 60.8 °F - 55.4 °F 82% 30.01 in 6.2 mi SSW 12.7 mph - N/A   Scattered Clouds
2:45 PM 60.8 °F - 55.4 °F 82% 30.01 in 6.2 mi SSW 12.7 mph - N/A   Scattered Clouds
3:15 PM 60.8 °F - 55.4 °F 82% 30.01 in 6.2 mi SSW 15.0 mph - N/A   Partly Cloudy
3:45 PM 60.8 °F - 53.6 °F 77% 30.01 in 6.2 mi SSW 15.0 mph - N/A   Partly Cloudy
4:00 PM 60 °F - 54 °F 74% 30.01 in 6 mi SSW 15.0 mph - -   Scattered Clouds
4:15 PM 57.2 °F - 53.6 °F 88% 30.01 in 6.2 mi SSW 12.7 mph - N/A   Partly Cloudy
4:45 PM 57.2 °F - 53.6 °F 88% 30.01 in 6.2 mi South 11.5 mph - N/A   Partly Cloudy
5:15 PM 55.4 °F - 55.4 °F 100% 30.01 in 6.2 mi South 11.5 mph - N/A   Partly Cloudy
5:45 PM 55.4 °F - 55.4 °F 100% 30.01 in 6.2 mi South 11.5 mph - N/A   Partly Cloudy
6:15 PM 53.6 °F - 51.8 °F 94% 30.01 in 6.2 mi South 8.1 mph - N/A   Partly Cloudy
6:45 PM 51.8 °F - 51.8 °F 100% 30.01 in 6.2 mi South 9.2 mph - N/A   Partly Cloudy
7:00 PM 53 °F - 52 °F 97% 30.01 in 6 mi South 9.2 mph - -   Scattered Clouds
7:15 PM 51.8 °F - 51.8 °F 100% 30.01 in 6.2 mi South 9.2 mph - N/A   Partly Cloudy
7:45 PM 51.8 °F - 50.0 °F 94% 30.01 in 6.2 mi South 9.2 mph - N/A   Partly Cloudy
8:15 PM 50.0 °F - 50.0 °F 100% 30.01 in - South 9.2 mph - N/A   Clear
8:45 PM 50.0 °F - 48.2 °F 94% 30.01 in - South 9.2 mph - N/A   Clear
9:15 PM 50.0 °F - 48.2 °F 94% 30.01 in - South 9.2 mph - N/A   Clear
9:45 PM 50.0 °F - 48.2 °F 94% 30.01 in - South 9.2 mph - N/A   Clear
10:00 PM 49 °F - 48 °F 94% 30.01 in 6 mi South 9.2 mph - -   Clear
10:15 PM 48.2 °F - 46.4 °F 93% 30.01 in 6.2 mi South 9.2 mph - N/A   Partly Cloudy
10:45 PM 48.2 °F - 46.4 °F 93% 30.01 in 6.2 mi South 9.2 mph - N/A   Partly Cloudy
11:15 PM 48.2 °F - 46.4 °F 93% 29.98 in 6.2 mi South 9.2 mph - N/A   Scattered Clouds
11:45 PM 48.2 °F - 46.4 °F 93% 29.98 in 6.2 mi South 9.2 mph - N/A   Scattered Clouds